[Date Prev][Date Next][Thread Prev][Thread Next] - [Date Index][Thread Index][Author Index]

2 Line ISS Keps 10-7



ISS
1 25544U 98067A   02280.13598069  .00045048  00000-0  52259-3 0  2263
2 25544  51.6352 210.7954 0017297 342.9644 103.6674 15.61144212221492


----
Via the sarex mailing list at AMSAT.ORG courtesy of AMSAT-NA.
To unsubscribe, send "unsubscribe sarex" to Majordomo@amsat.org



AMSAT Top AMSAT Home